DL9BGG-13 Weather Reports


time (UTC)temp
F
wind
direction
speed
knots
gust
knots
rain 1hr
in
rain 24hr
in
rain mn
in
humidity
%
barometer
mb
20260831035234 61 180 99.1 0.0 0.00 0.12 0.00 95 1051.5
20260831034556 61 180 99.1 0.0 0.00 0.12 0.00 95 1051.6
20260831033934 61 180 99.1 0.0 0.00 0.12 0.00 95 1051.7
20260831033304 61 180 99.1 0.0 0.00 0.12 0.00 95 1051.8
20260831032634 61 180 99.1 0.0 0.00 0.12 0.00 95 1051.8
20260831032005 61 180 99.1 0.0 0.00 0.12 0.00 95 1051.8
20260831031334 61 180 99.1 0.0 0.00 0.12 0.00 95 1051.8
20260831030705 61 180 99.1 0.0 0.00 0.12 0.00 95 1051.9
20260831030034 61 180 99.1 0.0 0.02 0.12 0.00 95 1051.9
20260831025412 61 180 99.1 0.0 0.02 0.12 0.00 95 1051.9
20260831024734 61 180 99.1 0.0 0.04 0.12 0.00 95 1052.0
20260831024104 61 180 99.1 0.0 0.04 0.12 0.00 95 1051.9
20260831023434 61 180 99.1 0.0 0.04 0.12 0.00 95 1052.2
20260831022804 61 180 99.1 0.0 0.04 0.12 0.00 95 1052.2
20260831022134 61 180 99.1 0.0 0.04 0.12 0.00 95 1052.1
20260831021456 61 180 99.1 0.0 0.04 0.12 0.00 95 1051.9
20260831020826 61 180 99.1 0.0 0.04 0.12 0.00 95 1052.0
20260831020148 61 180 99.1 0.0 0.02 0.10 0.00 95 1052.0
20260831015534 61 180 99.1 0.0 0.02 0.14 0.00 95 1052.3
20260831014905 61 180 99.1 0.0 0.02 0.14 0.00 95 1052.3
20260831014234 61 180 99.1 0.0 0.00 0.12 0.00 95 1052.4
20260831013605 61 180 99.1 0.0 0.00 0.12 0.00 95 1052.4
20260831012935 61 180 99.1 0.0 0.00 0.12 0.00 95 1052.5
20260831012313 61 180 99.1 0.0 0.00 0.12 0.00 95 1052.5
20260831011620 61 157 0.0 0.0 0.00 0.12 0.00 94 1052.5
20260831011513 60 180 0.0 0.0 0.00 0.12 0.00 95 1052.6
20260831011200 60 157 6.1 0.0 0.00 0.12 0.00 94 1052.7
20260831011053 60 135 0.0 0.0 0.00 0.12 0.00 94 1052.6
20260831010940 60 157 0.0 0.0 0.00 0.12 0.00 94 1052.7
20260831010827 60 135 0.0 0.0 0.00 0.12 0.00 94 1052.7
20260831010705 60 180 2.6 0.0 0.00 0.12 0.00 94 1052.7
20260831010545 60 157 2.6 0.0 0.00 0.12 0.00 94 1052.8
20260831010440 60 157 0.0 0.0 0.00 0.12 0.00 94 1052.8
20260831010325 60 135 0.0 0.0 0.00 0.12 0.00 94 1052.9
20260831005939 60 202 4.3 0.0 0.00 0.12 0.00 94 1052.9
20260831005833 60 112 0.9 0.0 0.00 0.12 0.00 94 1052.9
20260831005721 60 135 0.0 0.0 0.00 0.12 0.00 94 1053.0
20260831005610 60 135 0.0 0.0 0.00 0.12 0.00 94 1053.0
20260831005502 60 135 0.0 0.0 0.00 0.12 0.00 94 1053.0
20260831005349 60 157 0.0 0.0 0.00 0.12 0.00 94 1053.1
20260831005230 60 157 0.0 0.0 0.00 0.12 0.00 94 1053.0
20260831005115 60 157 0.0 0.0 0.00 0.12 0.00 94 1053.0
20260831005001 60 135 0.0 0.0 0.00 0.12 0.00 94 1053.1
20260831004843 60 157 0.0 0.0 0.00 0.12 0.00 94 1053.1
20260831004737 60 180 0.0 0.0 0.00 0.12 0.00 94 1053.2
20260831004622 60 180 5.2 0.0 0.00 0.12 0.00 94 1053.1
20260831004503 60 157 0.9 0.0 0.00 0.12 0.00 94 1053.1
20260831004350 60 112 0.0 0.0 0.00 0.12 0.00 94 1053.1
20260831004237 60 135 0.9 0.0 0.00 0.12 0.00 94 1053.2
20260831004130 60 180 0.9 0.0 0.00 0.12 0.00 94 1053.2
20260831004016 60 157 1.7 0.0 0.00 0.12 0.00 94 1053.1
20260831003905 60 180 2.6 0.0 0.00 0.12 0.00 94 1053.3
20260831003758 60 157 0.0 0.0 0.00 0.12 0.00 94 1053.3
20260831003637 60 157 0.0 0.0 0.00 0.12 0.00 94 1053.2
20260831003524 60 157 0.0 0.0 0.00 0.12 0.00 94 1053.2
20260831003356 60 180 0.0 0.0 0.00 0.12 0.00 94 1053.3
20260831003249 60 180 3.5 0.0 0.00 0.12 0.00 94 1053.3
20260831003138 60 157 2.6 0.0 0.00 0.12 0.00 94 1053.3
20260831003032 60 157 0.0 0.0 0.00 0.12 0.00 94 1053.3
20260831002903 60 157 0.0 0.0 0.00 0.12 0.00 94 1053.3
20260831002742 60 135 0.0 0.0 0.00 0.12 0.00 94 1053.3
20260831002616 60 157 0.0 0.0 0.00 0.12 0.00 94 1053.3
20260831002502 60 157 0.0 0.0 0.00 0.12 0.00 94 1053.3
20260831002339 60 180 0.0 0.0 0.00 0.12 0.00 94 1053.3
20260831002210 60 202 2.6 0.0 0.00 0.12 0.00 94 1053.3
20260831002104 60 157 0.0 0.0 0.00 0.12 0.00 94 1053.4
20260831001952 60 180 0.0 0.0 0.00 0.12 0.00 94 1053.5
20260831001845 60 180 0.0 0.0 0.00 0.12 0.00 94 1053.4
20260831001732 60 157 0.0 0.0 0.00 0.12 0.00 94 1053.5
20260831001603 60 157 0.0 0.0 0.00 0.12 0.00 94 1053.5
20260831001449 60 157 0.0 0.0 0.00 0.12 0.00 94 1053.5
20260831001327 60 157 0.0 0.0 0.00 0.12 0.00 94 1053.6
20260831001218 60 157 0.0 0.0 0.00 0.12 0.00 94 1053.6
20260831001112 60 157 1.7 0.0 0.00 0.12 0.00 94 1053.5
20260831001007 60 157 0.0 0.0 0.00 0.12 0.00 94 1053.6
20260831000900 60 157 0.0 0.0 0.00 0.12 0.00 94 1053.5
20260831000746 60 180 0.0 0.0 0.00 0.12 0.00 94 1053.5
20260831000617 61 157 0.0 0.0 0.00 0.12 0.00 94 1053.6
20260831000505 61 157 0.0 0.0 0.00 0.12 0.00 94 1053.6
20260831000350 61 180 6.1 0.0 0.00 0.12 0.00 94 1053.6
20260831000233 61 157 0.0 0.0 0.00 0.12 0.00 94 1053.6
20260831000116 61 157 0.9 0.0 0.00 0.12 0.00 94 1053.7
20260830235957 61 157 0.0 0.0 0.00 0.16 0.00 94 1053.7
20260830235842 61 180 3.5 0.0 0.00 0.16 0.00 94 1053.7
20260830235729 61 180 0.0 0.0 0.00 0.16 0.00 94 1053.7
20260830235608 61 180 3.5 0.0 0.00 0.16 0.00 94 1053.6
20260830235454 61 157 0.0 0.0 0.00 0.16 0.00 94 1053.7
20260830235342 61 157 0.9 0.0 0.00 0.16 0.00 94 1053.7
20260830235228 61 157 0.0 0.0 0.00 0.16 0.00 94 1053.7
20260830235110 61 180 4.3 0.0 0.00 0.16 0.00 94 1053.7
20260830235003 60 180 5.2 0.0 0.00 0.16 0.00 94 1053.6
20260830234841 61 135 0.0 0.0 0.00 0.16 0.00 94 1053.7
20260830234720 60 180 4.3 0.0 0.00 0.16 0.00 94 1053.7
20260830234607 61 157 4.3 0.0 0.00 0.16 0.00 94 1053.7
20260830234503 61 157 0.0 0.0 0.00 0.16 0.00 94 1053.8
20260830234357 61 157 0.0 0.0 0.00 0.16 0.00 94 1053.7
20260830234235 61 180 0.0 0.0 0.00 0.16 0.00 94 1053.8
20260830234115 61 157 1.7 0.0 0.00 0.16 0.00 94 1053.8
20260830234003 61 180 2.6 0.0 0.00 0.16 0.00 94 1053.8
20260830233858 61 135 0.0 0.0 0.00 0.16 0.00 94 1053.8
20260830233752 61 157 0.9 0.0 0.00 0.16 0.00 94 1053.8
20260830233648 61 157 0.0 0.0 0.00 0.16 0.00 94 1053.8
20260830233543 61 157 0.0 0.0 0.00 0.16 0.00 94 1053.8
20260830233436 61 157 6.1 0.0 0.00 0.16 0.00 94 1053.9
20260830233324 61 135 1.7 0.0 0.00 0.16 0.00 94 1053.9
20260830233213 61 157 0.0 0.0 0.00 0.16 0.00 94 1053.9
20260830233105 61 157 5.2 0.0 0.00 0.16 0.00 93 1053.9
20260830232952 61 180 0.0 0.0 0.00 0.16 0.00 93 1053.9
20260830232839 61 135 1.7 0.0 0.00 0.16 0.00 94 1053.9
20260830232727 61 157 3.5 0.0 0.00 0.16 0.00 94 1053.9
20260830232621 61 180 0.0 0.0 0.00 0.16 0.00 93 1054.0
20260830232510 61 180 0.0 0.0 0.00 0.16 0.00 93 1053.9
20260830232402 61 135 0.0 0.0 0.00 0.16 0.00 93 1053.9
20260830232251 61 180 5.2 0.0 0.00 0.16 0.00 93 1054.0
20260830232145 61 157 0.0 0.0 0.00 0.16 0.00 93 1054.0
20260830232031 61 157 4.3 0.0 0.00 0.16 0.00 93 1054.0
20260830231918 61 202 0.0 0.0 0.00 0.16 0.00 93 1054.0
20260830231758 61 180 0.0 0.0 0.00 0.16 0.00 93 1053.9
20260830231652 61 135 3.5 0.0 0.00 0.16 0.00 93 1054.0
20260830231547 61 135 0.0 0.0 0.00 0.16 0.00 93 1054.0
20260830231426 61 157 0.0 0.0 0.00 0.16 0.00 93 1053.9
20260830231304 61 157 1.7 0.0 0.00 0.16 0.00 93 1054.0
20260830231135 61 135 0.0 0.0 0.00 0.16 0.00 93 1054.0
20260830231024 61 157 3.5 0.0 0.00 0.16 0.00 93 1054.0
20260830230917 61 157 0.0 0.0 0.00 0.16 0.00 93 1054.1
20260830230756 61 157 0.0 0.0 0.00 0.16 0.00 93 1054.1
20260830230652 61 157 0.0 0.0 0.00 0.16 0.00 93 1054.1
20260830230545 61 157 0.0 0.0 0.00 0.16 0.00 93 1054.1
20260830230424 61 157 0.0 0.0 0.00 0.16 0.00 93 1054.1
20260830230304 61 157 0.0 0.0 0.00 0.16 0.00 93 1054.1
20260830230150 61 180 0.0 0.0 0.00 0.16 0.00 93 1054.2
20260830230038 61 180 0.0 0.0 0.00 0.16 0.00 93 1054.1
20260830225924 61 157 0.0 0.0 0.00 0.16 0.00 93 1054.2
20260830225802 61 157 0.0 0.0 0.00 0.16 0.00 93 1054.3
20260830225642 61 157 0.0 0.0 0.00 0.16 0.00 93 1054.2
20260830225537 61 157 0.0 0.0 0.00 0.16 0.00 93 1054.3
20260830225416 61 180 0.0 0.0 0.00 0.16 0.00 93 1054.3
20260830225313 61 180 0.0 0.0 0.00 0.16 0.00 93 1054.3
20260830225159 61 180 0.0 0.0 0.00 0.16 0.00 93 1054.2
20260830225030 61 180 0.0 0.0 0.00 0.16 0.00 93 1054.4
20260830224908 61 180 0.0 0.0 0.00 0.16 0.00 93 1054.4
20260830224737 61 180 0.0 0.0 0.00 0.16 0.00 93 1054.4
20260830224626 61 180 0.0 0.0 0.00 0.16 0.00 93 1054.3
20260830224519 61 180 2.6 0.0 0.00 0.16 0.00 93 1054.4
20260830224406 61 180 0.0 0.0 0.00 0.16 0.00 93 1054.3
20260830224253 61 157 0.0 0.0 0.00 0.16 0.00 93 1054.3
20260830224131 61 202 0.0 0.0 0.00 0.16 0.00 93 1054.4
20260830224012 61 180 0.0 0.0 0.00 0.16 0.00 93 1054.4
20260830223906 61 180 0.0 0.0 0.00 0.16 0.00 93 1054.3
20260830223744 61 180 0.0 0.0 0.00 0.16 0.00 93 1054.4
20260830223625 61 180 0.0 0.0 0.00 0.16 0.00 93 1054.4
20260830223518 61 180 0.0 0.0 0.00 0.16 0.00 93 1054.4
20260830223405 61 180 0.0 0.0 0.00 0.16 0.00 93 1054.4
20260830223300 61 180 0.0 0.0 0.00 0.16 0.00 93 1054.5
20260830223130 61 180 0.0 0.0 0.00 0.16 0.00 93 1054.5
20260830223017 61 180 0.0 0.0 0.00 0.16 0.00 93 1054.5
20260830222912 61 180 0.0 0.0 0.00 0.16 0.00 93 1054.5
20260830222807 61 180 0.0 0.0 0.00 0.16 0.00 93 1054.4
20260830222656 61 157 0.0 0.0 0.00 0.16 0.00 93 1054.4
20260830222551 61 180 3.5 0.0 0.00 0.16 0.00 93 1054.4
20260830222444 61 180 0.0 0.0 0.00 0.16 0.00 93 1054.4
20260830222323 61 180 0.0 0.0 0.00 0.16 0.00 93 1054.4
20260830222210 61 180 0.0 0.0 0.00 0.16 0.00 93 1054.4
20260830222104 61 180 0.0 0.0 0.00 0.16 0.00 93 1054.4
20260830221951 61 180 0.0 0.0 0.00 0.16 0.00 93 1054.4
20260830221840 61 180 0.0 0.0 0.00 0.16 0.00 93 1054.4
20260830221725 62 180 0.0 0.0 0.00 0.16 0.00 93 1054.3
20260830221612 62 180 0.0 0.0 0.00 0.16 0.00 93 1054.4
20260830221508 62 157 0.0 0.0 0.00 0.16 0.00 93 1054.4
20260830221354 62 157 0.0 0.0 0.00 0.16 0.00 93 1054.4
20260830221233 62 157 0.0 0.0 0.00 0.16 0.00 93 1054.4
20260830221111 62 157 0.0 0.0 0.00 0.16 0.00 93 1054.5
20260830220950 62 180 4.3 0.0 0.00 0.16 0.00 93 1054.5
20260830220838 62 180 0.0 0.0 0.00 0.16 0.00 92 1054.4
20260830220732 62 180 0.0 0.0 0.00 0.16 0.00 92 1054.4
20260830220627 62 180 0.0 0.0 0.00 0.16 0.00 92 1054.6
20260830220516 62 180 0.0 0.0 0.00 0.16 0.00 92 1054.6
20260830220409 62 180 0.0 0.0 0.00 0.16 0.00 92 1054.6
20260830220249 62 180 0.0 0.0 0.00 0.16 0.00 92 1054.6
20260830220143 62 180 4.3 0.0 0.00 0.16 0.00 92 1054.7
20260830220030 62 180 0.0 0.0 0.00 0.16 0.00 92 1054.6
20260830215926 62 180 0.0 0.0 0.00 0.18 0.00 92 1054.6
20260830215820 62 180 0.0 0.0 0.00 0.18 0.00 92 1054.7
20260830215715 62 180 0.0 0.0 0.00 0.18 0.00 92 1054.6
20260830215555 62 180 3.5 0.0 0.00 0.18 0.00 92 1054.6
20260830215449 62 157 3.5 0.0 0.00 0.18 0.00 92 1054.6
20260830215344 62 157 0.0 0.0 0.00 0.18 0.00 92 1054.7
20260830215232 62 180 0.0 0.0 0.00 0.18 0.00 92 1054.8
20260830215126 62 180 0.0 0.0 0.00 0.18 0.00 92 1054.7
20260830215023 62 180 0.0 0.0 0.00 0.18 0.00 92 1054.8
20260830214915 62 180 0.0 0.0 0.00 0.18 0.00 92 1054.9
20260830214802 62 180 2.6 0.0 0.00 0.18 0.00 92 1054.9
20260830214649 62 180 0.0 0.0 0.00 0.18 0.00 92 1054.9
20260830214546 62 180 0.0 0.0 0.00 0.18 0.00 92 1054.9
20260830214441 62 180 0.0 0.0 0.00 0.18 0.00 92 1054.9
20260830214334 62 180 0.0 0.0 0.00 0.18 0.00 92 1054.9
20260830214213 62 180 0.0 0.0 0.00 0.18 0.00 92 1054.9
20260830214100 62 180 0.0 0.0 0.00 0.18 0.00 92 1054.8
20260830213954 62 180 0.0 0.0 0.00 0.18 0.00 92 1054.9
20260830213825 62 180 0.0 0.0 0.00 0.18 0.00 92 1054.9
20260830213712 62 180 0.0 0.0 0.00 0.18 0.00 92 1054.9
20260830213607 62 180 0.0 0.0 0.00 0.18 0.00 92 1054.9
20260830213454 62 180 0.0 0.0 0.00 0.18 0.00 92 1054.9
20260830213349 62 180 0.0 0.0 0.00 0.18 0.00 92 1054.9
20260830213238 62 180 0.0 0.0 0.00 0.18 0.00 92 1055.0
20260830213130 62 180 0.0 0.0 0.00 0.18 0.00 92 1054.9
20260830213017 62 180 0.0 0.0 0.00 0.18 0.00 91 1055.0
20260830212904 62 180 0.0 0.0 0.00 0.18 0.00 91 1055.0
20260830212758 62 180 0.0 0.0 0.00 0.18 0.00 91 1054.9
20260830212629 62 180 0.0 0.0 0.00 0.18 0.00 91 1054.9
20260830212516 62 180 0.9 0.0 0.00 0.18 0.00 91 1054.9
20260830212410 62 180 0.0 0.0 0.00 0.18 0.00 91 1054.9
20260830212306 62 180 0.0 0.0 0.00 0.18 0.00 91 1054.9
20260830212159 62 180 0.0 0.0 0.00 0.18 0.00 91 1054.9
20260830212052 62 180 0.0 0.0 0.00 0.18 0.00 91 1054.8
20260830211931 62 180 0.0 0.0 0.00 0.18 0.00 91 1054.8
20260830211817 62 180 0.9 0.0 0.00 0.18 0.00 91 1054.9
20260830211710 62 180 0.0 0.0 0.00 0.18 0.00 91 1054.9
20260830211555 62 157 3.5 0.0 0.00 0.18 0.00 91 1055.0
20260830211435 62 180 0.0 0.0 0.00 0.18 0.00 91 1054.8
20260830211322 62 202 0.0 0.0 0.00 0.18 0.00 91 1055.0
20260830211208 62 202 0.0 0.0 0.00 0.18 0.00 91 1054.9
20260830211102 62 202 0.0 0.0 0.00 0.18 0.00 91 1054.8
20260830210948 62 202 0.0 0.0 0.00 0.18 0.00 91 1055.0
20260830210826 62 202 0.0 0.0 0.00 0.18 0.00 91 1055.0
20260830210713 62 202 0.0 0.0 0.00 0.18 0.00 91 1055.0
20260830210607 62 202 0.0 0.0 0.00 0.18 0.00 91 1054.9
20260830210502 63 202 0.0 0.0 0.00 0.18 0.00 91 1054.8
20260830210356 63 202 0.0 0.0 0.00 0.18 0.00 91 1054.9
20260830210244 63 202 0.0 0.0 0.00 0.18 0.00 91 1054.9
20260830210122 63 202 0.0 0.0 0.00 0.18 0.00 91 1054.8
20260830210007 63 202 0.0 0.0 0.00 0.20 0.00 91 1054.7
20260830205837 63 180 0.0 0.0 0.00 0.20 0.00 91 1054.7
20260830205720 63 180 0.0 0.0 0.00 0.20 0.00 91 1054.7
20260830205615 63 180 0.0 0.0 0.00 0.20 0.00 91 1054.7
20260830205508 63 180 0.0 0.0 0.00 0.20 0.00 91 1054.6
20260830205346 63 180 0.0 0.0 0.00 0.20 0.00 91 1054.7
20260830205233 63 180 0.0 0.0 0.00 0.20 0.00 91 1054.8
20260830205126 63 180 0.0 0.0 0.00 0.20 0.00 91 1054.8
20260830205012 63 180 0.0 0.0 0.00 0.20 0.00 91 1054.7
20260830204905 63 202 0.0 0.0 0.00 0.20 0.00 91 1054.7
20260830204800 63 180 0.0 0.0 0.00 0.20 0.00 91 1054.7
20260830204654 63 202 0.0 0.0 0.00 0.20 0.00 91 1054.6
20260830204547 63 202 0.0 0.0 0.00 0.20 0.00 91 1054.7
20260830204442 63 202 0.0 0.0 0.00 0.20 0.00 91 1054.6
20260830204329 63 202 0.0 0.0 0.00 0.20 0.00 91 1054.7
20260830204209 63 202 0.0 0.0 0.00 0.20 0.00 91 1054.7
20260830204105 63 202 0.0 0.0 0.00 0.20 0.00 91 1054.8
20260830203957 63 202 0.0 0.0 0.00 0.20 0.00 91 1054.8
20260830203845 63 202 0.0 0.0 0.00 0.20 0.00 91 1054.8
20260830203739 63 202 0.0 0.0 0.00 0.20 0.00 91 1055.0
20260830203634 64 202 0.0 0.0 0.00 0.20 0.00 91 1054.9
20260830203520 64 202 4.3 0.0 0.00 0.20 0.00 91 1055.0
20260830203408 64 202 0.9 0.0 0.00 0.20 0.00 91 1055.0
20260830203301 64 202 5.2 0.0 0.00 0.20 0.00 91 1054.9
20260830203138 64 202 0.0 0.0 0.00 0.20 0.00 91 1054.8
20260830203016 64 202 1.7 0.0 0.00 0.20 0.00 91 1054.8
20260830202855 64 202 4.3 0.0 0.00 0.20 0.00 91 1054.8
20260830202734 64 202 0.0 0.0 0.00 0.20 0.00 91 1054.8
20260830202629 64 202 0.0 0.0 0.00 0.20 0.00 91 1054.8
20260830202515 64 202 0.0 0.0 0.00 0.20 0.00 91 1054.8
20260830202401 64 202 0.0 0.0 0.00 0.20 0.00 91 1054.8
20260830202255 64 202 0.0 0.0 0.00 0.20 0.00 91 1055.0
20260830202148 64 202 0.0 0.0 0.00 0.20 0.00 91 1055.0
20260830202028 64 202 0.0 0.0 0.00 0.20 0.00 91 1055.0
20260830201920 64 202 0.0 0.0 0.00 0.20 0.00 91 1055.0
20260830201757 64 202 0.0 0.0 0.00 0.20 0.00 91 1055.0
20260830201628 64 202 0.0 0.0 0.00 0.20 0.00 91 1055.0
20260830201515 64 202 0.0 0.0 0.00 0.20 0.00 91 1054.9
20260830201402 64 202 0.0 0.0 0.00 0.20 0.00 91 1055.0
20260830201257 64 202 0.9 0.0 0.00 0.20 0.00 91 1055.0
20260830201142 64 202 1.7 0.0 0.00 0.20 0.00 91 1055.0
20260830201036 64 202 0.0 0.0 0.00 0.20 0.00 91 1055.0
20260830200914 64 202 3.5 0.0 0.00 0.20 0.00 91 1054.9
20260830200753 64 202 0.0 0.0 0.00 0.20 0.00 90 1055.1
20260830200640 64 202 0.0 0.0 0.00 0.20 0.00 90 1055.0
20260830200527 64 202 0.0 0.0 0.00 0.20 0.00 90 1055.0
20260830200421 64 202 0.0 0.0 0.00 0.20 0.00 90 1055.0
20260830200316 64 202 0.0 0.0 0.00 0.20 0.00 90 1055.0
20260830200155 64 202 0.0 0.0 0.00 0.20 0.00 90 1055.1
20260830200040 64 202 0.0 0.0 0.00 0.20 0.00 90 1055.1
20260830195935 64 202 0.0 0.0 0.00 0.20 0.00 90 1055.1
20260830195821 64 202 0.0 0.0 0.00 0.20 0.00 90 1055.1
20260830195711 64 202 0.0 0.0 0.00 0.20 0.00 90 1055.1
20260830195604 64 202 0.0 0.0 0.00 0.20 0.00 90 1055.1
20260830195450 64 202 0.0 0.0 0.00 0.20 0.00 90 1055.1
20260830195329 64 225 0.0 0.0 0.00 0.20 0.00 90 1055.1
20260830195214 64 247 0.0 0.0 0.00 0.20 0.00 90 1055.1
20260830195102 64 247 0.0 0.0 0.00 0.20 0.00 89 1055.1
20260830194949 64 247 0.0 0.0 0.00 0.20 0.00 89 1055.1
20260830194836 64 247 0.0 0.0 0.00 0.20 0.00 89 1055.1
20260830194722 64 247 0.0 0.0 0.00 0.20 0.00 89 1055.1
20260830194602 64 247 0.0 0.0 0.00 0.20 0.00 89 1055.1
20260830194458 64 247 0.0 0.0 0.00 0.20 0.00 89 1055.1
20260830194351 64 247 0.0 0.0 0.00 0.20 0.00 89 1055.1
20260830194221 64 247 0.0 0.0 0.00 0.20 0.00 89 1055.1
20260830194111 64 247 0.0 0.0 0.00 0.20 0.00 89 1055.1
20260830194003 64 247 0.0 0.0 0.00 0.20 0.00 89 1055.1
20260830193850 64 247 0.0 0.0 0.00 0.20 0.00 89 1055.1
20260830193746 64 247 0.0 0.0 0.00 0.20 0.00 89 1055.1
20260830193641 64 247 0.0 0.0 0.00 0.20 0.00 89 1055.1
20260830193535 64 247 0.0 0.0 0.00 0.20 0.00 89 1055.1
20260830193430 64 247 0.0 0.0 0.00 0.20 0.00 89 1055.1
20260830193308 64 247 0.0 0.0 0.00 0.20 0.00 89 1055.2
20260830193155 64 247 0.0 0.0 0.00 0.20 0.00 89 1055.2
20260830193043 64 247 0.0 0.0 0.00 0.20 0.00 89 1055.2
20260830192937 64 247 0.0 0.0 0.00 0.20 0.00 89 1055.2
20260830192825 64 247 0.0 0.0 0.00 0.20 0.00 89 1055.2
20260830192712 64 247 0.0 0.0 0.00 0.20 0.00 89 1055.2
20260830192558 64 247 0.0 0.0 0.00 0.20 0.00 89 1055.2
20260830192446 64 247 0.0 0.0 0.00 0.20 0.00 89 1055.2
20260830192340 64 247 0.0 0.0 0.00 0.20 0.00 89 1055.2
20260830192228 64 247 0.0 0.0 0.00 0.20 0.00 89 1055.2
20260830192122 64 247 0.0 0.0 0.00 0.20 0.00 89 1055.2
20260830192001 64 247 0.0 0.0 0.00 0.20 0.00 89 1055.2
20260830191858 64 247 0.0 0.0 0.00 0.20 0.00 89 1055.3
20260830191751 64 247 0.0 0.0 0.00 0.20 0.00 89 1055.3
20260830191637 64 247 0.0 0.0 0.00 0.20 0.00 89 1055.3
20260830191516 64 247 0.0 0.0 0.00 0.20 0.00 89 1055.3
20260830191406 64 247 0.0 0.0 0.00 0.20 0.00 89 1055.3
20260830191259 64 247 0.0 0.0 0.00 0.20 0.00 89 1055.2
20260830191146 64 247 0.0 0.0 0.00 0.20 0.00 88 1055.3
20260830191040 64 247 0.0 0.0 0.00 0.20 0.00 88 1055.3
20260830190935 64 247 0.0 0.0 0.00 0.20 0.00 88 1055.2
20260830190759 64 247 0.0 0.0 0.00 0.20 0.00 88 1055.2
20260830190653 64 247 0.0 0.0 0.00 0.20 0.00 88 1055.3
20260830190548 64 247 0.0 0.0 0.00 0.20 0.00 88 1055.2
20260830190437 64 247 0.0 0.0 0.00 0.20 0.00 88 1055.4
20260830190330 64 247 0.0 0.0 0.00 0.20 0.00 88 1055.4
20260830190216 64 247 0.0 0.0 0.00 0.20 0.00 88 1055.3
20260830190056 64 247 0.0 0.0 0.00 0.20 0.00 88 1055.3
20260830185951 64 247 0.0 0.0 0.00 0.20 0.00 88 1055.2
20260830185845 64 225 0.0 0.0 0.00 0.20 0.00 88 1055.2
20260830185724 64 225 0.0 0.0 0.00 0.20 0.00 88 1055.2
20260830185602 64 225 0.0 0.0 0.00 0.20 0.00 87 1055.3
20260830185434 65 247 0.9 0.0 0.00 0.20 0.00 87 1055.2
20260830185320 65 247 0.0 0.0 0.00 0.20 0.00 87 1055.2
20260830185215 65 247 0.0 0.0 0.00 0.20 0.00 87 1055.2
20260830185054 65 247 1.7 0.0 0.00 0.20 0.00 87 1055.2
20260830184933 65 247 0.0 0.0 0.00 0.20 0.00 87 1055.2
20260830184819 65 270 2.6 0.0 0.00 0.20 0.00 87 1055.2
20260830184658 65 292 1.7 0.0 0.00 0.20 0.00 87 1055.3
20260830184546 65 247 0.0 0.0 0.00 0.20 0.00 86 1055.2
20260830184432 65 247 2.6 0.0 0.00 0.20 0.00 86 1055.2
20260830184319 65 270 0.0 0.0 0.00 0.20 0.00 86 1055.2
20260830184204 66 270 0.0 0.0 0.00 0.20 0.00 85 1055.2
20260830184050 66 315 1.7 0.0 0.00 0.20 0.00 85 1055.2
20260830183921 66 225 3.5 0.0 0.00 0.20 0.00 85 1055.2
20260830183800 66 292 3.5 0.0 0.00 0.20 0.00 85 1055.2
20260830183639 66 270 0.0 0.0 0.00 0.20 0.00 85 1055.2
20260830183534 66 270 0.0 0.0 0.00 0.20 0.00 84 1055.2
20260830183420 66 247 0.0 0.0 0.00 0.20 0.00 84 1055.1
20260830183252 66 247 0.0 0.0 0.00 0.20 0.00 84 1055.2
20260830183140 66 247 0.0 0.0 0.00 0.20 0.00 84 1055.2
20260830183032 66 202 0.0 0.0 0.00 0.20 0.00 84 1055.2
20260830182912 66 202 0.0 0.0 0.00 0.20 0.00 84 1055.2
20260830182750 66 180 0.0 0.0 0.00 0.20 0.00 83 1055.2
20260830182629 67 270 0.0 0.0 0.00 0.20 0.00 83 1055.1
20260830182508 67 270 0.0 0.0 0.00 0.20 0.00 83 1055.0
20260830182401 67 270 0.0 0.0 0.00 0.20 0.00 83 1055.0
20260830182234 67 270 0.0 0.0 0.00 0.20 0.00 83 1055.1
20260830182130 67 270 0.0 0.0 0.00 0.20 0.00 83 1055.0
20260830182022 67 247 0.0 0.0 0.00 0.20 0.00 83 1055.0
20260830181909 67 247 0.0 0.0 0.00 0.20 0.00 83 1055.0
20260830181757 67 247 0.0 0.0 0.00 0.20 0.00 83 1055.0
20260830181635 67 270 0.0 0.0 0.00 0.20 0.00 83 1054.9
20260830181521 67 270 0.0 0.0 0.00 0.20 0.00 83 1054.9
20260830181354 67 270 0.0 0.0 0.00 0.20 0.00 83 1054.9
20260830181249 67 270 0.0 0.0 0.00 0.20 0.00 83 1054.8
20260830181141 67 270 0.0 0.0 0.00 0.20 0.00 83 1054.8
20260830181029 67 270 0.0 0.0 0.00 0.20 0.00 83 1055.0
20260830180918 67 247 0.0 0.0 0.00 0.20 0.00 83 1054.8
20260830180813 67 270 0.0 0.0 0.00 0.20 0.00 83 1054.9
20260830180707 67 247 0.0 0.0 0.00 0.20 0.00 83 1054.9
20260830180603 67 247 0.0 0.0 0.00 0.20 0.00 83 1054.8
20260830180456 67 247 0.0 0.0 0.00 0.20 0.00 82 1054.8
20260830180337 67 247 0.0 0.0 0.00 0.20 0.00 82 1054.9
20260830180230 67 247 0.0 0.0 0.00 0.20 0.00 82 1054.9
20260830180116 67 247 0.0 0.0 0.00 0.20 0.00 82 1054.9
20260830175956 67 247 0.0 0.0 0.00 0.20 0.00 82 1054.9
20260830175850 67 270 0.0 0.0 0.00 0.20 0.00 82 1054.9
20260830175729 67 270 0.0 0.0 0.00 0.20 0.00 82 1054.9
20260830175607 67 270 0.0 0.0 0.00 0.20 0.00 82 1054.8
20260830175446 67 270 0.0 0.0 0.00 0.20 0.00 82 1054.8
20260830175326 67 270 0.0 0.0 0.00 0.20 0.00 82 1054.7
20260830175213 67 270 0.0 0.0 0.00 0.20 0.00 82 1054.8
20260830175059 67 270 0.0 0.0 0.00 0.20 0.00 82 1054.8
20260830174937 67 270 0.0 0.0 0.00 0.20 0.00 82 1054.8
20260830174816 67 270 0.0 0.0 0.00 0.20 0.00 82 1054.7
20260830174647 67 270 0.0 0.0 0.00 0.20 0.00 81 1054.8
20260830174535 67 247 0.0 0.0 0.00 0.20 0.00 81 1054.8
20260830174430 68 270 0.0 0.0 0.00 0.20 0.00 81 1054.8
20260830174324 68 270 0.0 0.0 0.00 0.20 0.00 81 1054.7
20260830174213 68 270 0.0 0.0 0.00 0.20 0.00 81 1054.8
20260830174106 68 270 0.0 0.0 0.00 0.20 0.00 81 1054.8
20260830173945 68 270 0.0 0.0 0.00 0.20 0.00 81 1054.7
20260830173831 68 270 0.0 0.0 0.00 0.20 0.00 81 1054.7
20260830173712 68 247 0.0 0.0 0.00 0.20 0.00 81 1054.7
20260830173607 68 247 0.0 0.0 0.00 0.20 0.00 81 1054.8
20260830173452 68 247 0.0 0.0 0.00 0.20 0.00 81 1054.8
20260830173340 68 247 0.0 0.0 0.00 0.20 0.00 81 1054.8
20260830173234 68 247 0.0 0.0 0.00 0.20 0.00 81 1054.8
20260830173105 68 247 0.0 0.0 0.00 0.20 0.00 81 1054.8
20260830172945 68 270 0.0 0.0 0.00 0.20 0.00 80 1054.8
20260830172830 68 247 0.0 0.0 0.00 0.20 0.00 80 1054.8
20260830172718 68 270 0.0 0.0 0.00 0.20 0.00 80 1054.8
20260830172612 68 270 0.0 0.0 0.00 0.20 0.00 80 1054.8
20260830172459 68 270 0.0 0.0 0.00 0.20 0.00 80 1054.9
20260830172355 68 270 0.0 0.0 0.00 0.20 0.00 80 1054.8
20260830172242 68 247 0.0 0.0 0.00 0.20 0.00 80 1055.0
20260830172126 69 247 3.5 0.0 0.00 0.20 0.00 79 1054.9
20260830172003 69 247 0.0 0.0 0.00 0.20 0.00 79 1054.8
20260830171831 69 247 0.0 0.0 0.00 0.20 0.00 79 1054.8
20260830171718 69 270 1.7 0.0 0.00 0.20 0.00 79 1054.9
20260830171602 69 202 0.0 0.0 0.00 0.20 0.00 79 1054.9
20260830171442 69 225 4.3 0.0 0.00 0.20 0.00 79 1054.8
20260830171335 69 270 2.6 0.0 0.00 0.20 0.00 79 1054.8
20260830171221 69 270 0.0 0.0 0.00 0.20 0.00 78 1054.9
20260830171115 69 270 0.0 0.0 0.00 0.20 0.00 78 1054.8
20260830171000 69 247 0.0 0.0 0.00 0.20 0.00 78 1054.8
20260830170838 69 270 0.0 0.0 0.00 0.20 0.00 78 1054.8
20260830170724 69 270 0.0 0.0 0.00 0.20 0.00 78 1054.9
20260830170610 69 292 1.7 0.0 0.00 0.20 0.00 78 1054.9
20260830170458 69 270 1.7 0.0 0.00 0.20 0.00 78 1054.9
20260830170351 69 270 2.6 0.0 0.00 0.20 0.00 78 1054.9
20260830170240 69 247 0.0 0.0 0.00 0.20 0.00 78 1054.9
20260830170125 69 270 0.0 0.0 0.00 0.20 0.00 78 1054.9
20260830170013 69 292 2.6 0.0 0.00 0.20 0.00 78 1054.8
20260830165909 69 292 4.3 0.0 0.00 0.20 0.00 78 1054.8
20260830165801 69 247 0.0 0.0 0.00 0.20 0.00 78 1054.7
20260830165640 69 270 0.0 0.0 0.00 0.20 0.00 77 1054.8
20260830165529 69 270 0.0 0.0 0.00 0.20 0.00 77 1054.9
20260830165422 69 292 0.0 0.0 0.00 0.20 0.00 77 1054.9
20260830165317 69 315 2.6 0.0 0.00 0.20 0.00 77 1054.8
20260830165211 69 270 3.5 0.0 0.00 0.20 0.00 77 1054.8
20260830165050 69 292 3.5 0.0 0.00 0.20 0.00 77 1054.8
20260830164937 69 292 4.3 0.0 0.00 0.20 0.00 77 1054.8
20260830164824 69 292 4.3 0.0 0.00 0.20 0.00 77 1054.8
20260830164703 69 270 1.7 0.0 0.00 0.20 0.00 77 1054.8
20260830164552 69 292 0.0 0.0 0.00 0.20 0.00 77 1054.8
20260830164444 69 292 0.0 0.0 0.00 0.20 0.00 77 1054.8
20260830164324 70 270 1.7 0.0 0.00 0.20 0.00 77 1054.7
20260830164212 70 270 5.2 0.0 0.00 0.20 0.00 77 1054.7
20260830164057 70 292 3.5 0.0 0.00 0.20 0.00 77 1054.7
20260830163944 70 292 1.7 0.0 0.00 0.20 0.00 77 1054.6
20260830163830 70 270 1.7 0.0 0.00 0.20 0.00 77 1054.7
20260830163701 70 247 0.0 0.0 0.00 0.20 0.00 77 1054.7
20260830163542 70 270 2.6 0.0 0.00 0.20 0.00 77 1054.8
20260830163436 70 247 3.5 0.0 0.00 0.20 0.00 77 1054.8
20260830163325 70 270 2.6 0.0 0.00 0.20 0.00 77 1054.7
20260830163220 70 270 1.7 0.0 0.00 0.20 0.00 77 1054.8
20260830163112 70 270 0.0 0.0 0.00 0.20 0.00 77 1054.8
20260830162959 70 270 0.0 0.0 0.00 0.20 0.00 77 1054.7
20260830162846 70 225 0.0 0.0 0.00 0.20 0.00 76 1054.7
20260830162733 70 270 0.0 0.0 0.00 0.20 0.00 76 1054.7
20260830162619 70 270 0.0 0.0 0.00 0.20 0.00 76 1054.7
20260830162506 70 270 0.0 0.0 0.00 0.20 0.00 76 1054.7
20260830162353 70 202 0.0 0.0 0.00 0.20 0.00 76 1054.7
20260830162232 70 292 5.2 0.0 0.00 0.20 0.00 76 1054.7
20260830162119 70 270 0.0 0.0 0.00 0.20 0.00 76 1054.6
20260830161958 70 247 1.7 0.0 0.00 0.20 0.00 76 1054.7
20260830161853 70 270 0.0 0.0 0.00 0.20 0.00 76 1054.6
20260830161731 70 270 0.9 0.0 0.00 0.20 0.00 76 1054.7
20260830161620 70 292 2.6 0.0 0.00 0.20 0.00 76 1054.6
20260830161514 70 270 4.3 0.0 0.00 0.20 0.00 75 1054.6
20260830161352 70 292 2.6 0.0 0.00 0.20 0.00 75 1054.7
20260830161231 70 225 0.0 0.0 0.00 0.20 0.00 75 1054.7
20260830161110 70 292 2.6 0.0 0.00 0.20 0.00 75 1054.7
20260830161005 70 270 4.3 0.0 0.00 0.20 0.00 75 1054.7
20260830160851 70 292 0.0 0.0 0.00 0.20 0.00 75 1054.7
20260830160732 70 270 0.0 0.0 0.00 0.20 0.00 75 1054.6
20260830160625 70 270 0.0 0.0 0.00 0.20 0.00 75 1054.6
20260830160512 70 270 3.5 0.0 0.00 0.20 0.00 75 1054.6
20260830160400 71 292 4.3 0.0 0.00 0.20 0.00 75 1054.7
20260830160246 71 247 3.5 0.0 0.00 0.20 0.00 74 1054.6
20260830160124 71 225 2.6 0.0 0.00 0.20 0.00 74 1054.6
20260830160004 71 247 0.0 0.0 0.00 0.20 0.00 74 1054.7
20260830155900 71 292 0.0 0.0 0.00 0.20 0.00 74 1054.6
20260830155754 71 270 1.7 0.0 0.00 0.20 0.00 74 1054.6
20260830155640 71 270 0.0 0.0 0.00 0.20 0.00 74 1054.6
20260830155527 71 247 4.3 0.0 0.00 0.20 0.00 75 1054.6
20260830155414 71 247 1.7 0.0 0.00 0.20 0.00 75 1054.6
20260830155309 71 270 2.6 0.0 0.00 0.20 0.00 75 1054.6
20260830155150 71 247 5.2 0.0 0.00 0.20 0.00 76 1054.6
20260830155034 71 292 4.3 0.0 0.00 0.20 0.00 76 1054.6
20260830154924 70 270 3.5 0.0 0.00 0.20 0.00 77 1054.6
20260830154817 70 270 1.7 0.0 0.00 0.20 0.00 77 1054.5
20260830154713 70 292 0.0 0.0 0.00 0.20 0.00 76 1054.6
20260830154606 70 292 5.2 0.0 0.00 0.20 0.00 76 1054.7
20260830154436 70 270 3.5 0.0 0.00 0.20 0.00 76 1054.6
20260830154325 70 270 1.7 0.0 0.00 0.20 0.00 76 1054.7
20260830154219 70 270 4.3 0.0 0.00 0.20 0.00 76 1054.6
20260830154057 70 247 4.3 0.0 0.00 0.20 0.00 76 1054.5
20260830153944 70 292 5.2 0.0 0.00 0.20 0.00 76 1054.6
20260830153832 70 292 3.5 0.0 0.00 0.20 0.00 76 1054.6
20260830153718 70 337 3.5 0.0 0.00 0.20 0.00 76 1054.6
20260830153607 70 270 6.1 0.0 0.00 0.20 0.00 76 1054.5
20260830153452 70 270 4.3 0.0 0.00 0.20 0.00 75 1054.6
20260830153339 70 247 5.2 0.0 0.00 0.20 0.00 75 1054.5
20260830153219 70 270 3.5 0.0 0.00 0.20 0.00 75 1054.5
20260830153105 70 292 7.0 0.0 0.00 0.20 0.00 76 1054.6
20260830152952 70 292 0.0 0.0 0.00 0.20 0.00 76 1054.6
20260830152847 70 247 3.5 0.0 0.00 0.20 0.00 76 1054.7
20260830152727 70 270 3.5 0.0 0.00 0.20 0.00 75 1054.6
20260830152612 70 247 5.2 0.0 0.00 0.20 0.00 75 1054.7
20260830152451 70 292 3.5 0.0 0.00 0.20 0.00 75 1054.8
20260830152329 71 270 3.5 0.0 0.00 0.20 0.00 75 1054.7
20260830152210 71 270 1.7 0.0 0.00 0.20 0.00 75 1054.7
20260830152057 71 315 0.0 0.0 0.00 0.20 0.00 74 1054.8
20260830151952 71 270 4.3 0.0 0.00 0.20 0.00 74 1054.6
20260830151845 71 337 4.3 0.0 0.00 0.20 0.00 74 1054.7
20260830151732 71 270 4.3 0.0 0.00 0.20 0.00 74 1054.6
20260830151620 71 292 0.0 0.0 0.00 0.20 0.00 73 1054.6
20260830151515 71 292 1.7 0.0 0.00 0.20 0.00 73 1054.6
20260830151409 71 292 5.2 0.0 0.00 0.20 0.00 73 1054.6
20260830151302 71 270 4.3 0.0 0.00 0.20 0.00 73 1054.7
20260830151156 71 270 3.5 0.0 0.00 0.20 0.00 73 1054.8
20260830151042 71 0 0.0 0.0 0.00 0.20 0.00 72 1054.7
20260830150929 71 270 4.3 0.0 0.00 0.20 0.00 72 1054.7
20260830150816 72 247 5.2 0.0 0.00 0.20 0.00 72 1054.7
20260830150703 72 292 5.2 0.0 0.00 0.20 0.00 72 1054.8
20260830150557 72 315 2.6 0.0 0.00 0.20 0.00 72 1054.7
20260830150447 72 270 3.5 0.0 0.00 0.20 0.00 72 1054.7
20260830150338 72 292 3.5 0.0 0.00 0.20 0.00 72 1054.6
20260830150220 72 292 3.5 0.0 0.00 0.20 0.00 72 1054.6
20260830150112 72 315 3.5 0.0 0.00 0.20 0.00 71 1054.7
20260830150000 72 292 4.3 0.0 0.00 0.20 0.00 71 1054.6
20260830145840 73 292 6.1 0.0 0.00 0.20 0.00 71 1054.7
20260830145725 73 315 7.8 0.0 0.00 0.20 0.00 71 1054.5
20260830145613 73 270 2.6 0.0 0.00 0.20 0.00 71 1054.5
20260830145459 73 315 2.6 0.0 0.00 0.20 0.00 71 1054.6
20260830145339 73 0 0.0 0.0 0.00 0.20 0.00 70 1054.7
20260830145234 73 315 3.5 0.0 0.00 0.20 0.00 70 1054.6
20260830145120 73 337 0.0 0.0 0.00 0.20 0.00 70 1054.6
20260830145016 73 270 5.2 0.0 0.00 0.20 0.00 70 1054.6
20260830144911 74 247 5.2 0.0 0.00 0.20 0.00 70 1054.6
20260830144805 74 292 1.7 0.0 0.00 0.20 0.00 69 1054.7
20260830144651 74 292 0.0 0.0 0.00 0.20 0.00 69 1054.6
20260830144531 75 315 7.0 0.0 0.00 0.20 0.00 69 1054.4
20260830144409 75 270 0.0 0.0 0.00 0.20 0.00 69 1054.5
20260830144248 75 315 2.6 0.0 0.00 0.20 0.00 69 1054.4
20260830144135 75 337 2.6 0.0 0.00 0.20 0.00 69 1054.3
20260830144016 75 270 2.6 0.0 0.00 0.20 0.00 69 1054.4
20260830143901 75 270 3.5 0.0 0.00 0.20 0.00 70 1054.4
20260830143748 75 315 0.0 0.0 0.00 0.20 0.00 70 1054.4
20260830143635 75 270 4.3 0.0 0.00 0.20 0.00 71 1054.3
20260830143513 74 270 3.5 0.0 0.00 0.20 0.00 71 1054.3
20260830143401 74 337 0.9 0.0 0.00 0.20 0.00 71 1054.3
20260830143256 74 270 3.5 0.0 0.00 0.20 0.00 71 1054.3
20260830143151 74 315 3.5 0.0 0.00 0.20 0.00 71 1054.3
20260830143045 73 292 3.5 0.0 0.00 0.20 0.00 70 1054.2
20260830142916 73 247 6.1 0.0 0.00 0.20 0.00 70 1054.3
20260830142754 73 270 6.1 0.0 0.00 0.20 0.00 70 1054.3
20260830142634 73 315 0.0 0.0 0.00 0.20 0.00 70 1054.2
20260830142520 73 270 6.1 0.0 0.00 0.20 0.00 70 1054.3
20260830142352 73 292 5.2 0.0 0.00 0.20 0.00 71 1054.3
20260830142229 73 270 0.0 0.0 0.00 0.20 0.00 71 1054.4
20260830142110 73 292 5.2 0.0 0.00 0.20 0.00 70 1054.4
20260830142006 73 270 11.3 0.0 0.00 0.20 0.00 70 1054.4
20260830141858 73 270 0.0 0.0 0.00 0.20 0.00 70 1054.4
20260830141737 73 292 5.2 0.0 0.00 0.20 0.00 70 1054.3
20260830141616 73 270 4.3 0.0 0.00 0.20 0.00 70 1054.3
20260830141513 73 247 1.7 0.0 0.00 0.20 0.00 70 1054.3
20260830141406 73 292 5.2 0.0 0.00 0.20 0.00 71 1054.3
20260830141244 73 292 5.2 0.0 0.00 0.20 0.00 71 1054.3
20260830141125 73 337 4.3 0.0 0.00 0.20 0.00 71 1054.4
20260830141018 73 315 4.3 0.0 0.00 0.20 0.00 70 1054.4
20260830140906 73 292 2.6 0.0 0.00 0.20 0.00 70 1054.4
20260830140801 73 270 3.5 0.0 0.00 0.20 0.00 69 1054.2
20260830140649 73 315 5.2 0.0 0.00 0.20 0.00 69 1054.3
20260830140544 73 315 2.6 0.0 0.00 0.20 0.00 69 1054.1
20260830140437 73 270 8.7 0.0 0.00 0.20 0.00 69 1054.3
20260830140324 73 315 7.0 0.0 0.00 0.20 0.00 70 1054.2
20260830140211 73 337 6.1 0.0 0.00 0.20 0.00 70 1054.4
20260830140058 73 292 5.2 0.0 0.00 0.20 0.00 71 1054.3
20260830135944 73 270 6.1 0.0 0.00 0.20 0.00 71 1054.3
20260830135825 73 292 6.1 0.0 0.00 0.20 0.00 71 1054.3
20260830135719 73 337 5.2 0.0 0.00 0.20 0.00 71 1054.3
20260830135606 73 292 3.5 0.0 0.00 0.20 0.00 71 1054.2
20260830135500 73 315 6.1 0.0 0.00 0.20 0.00 71 1054.2
20260830135331 73 292 1.7 0.0 0.00 0.20 0.00 71 1054.2
20260830135218 73 292 4.3 0.0 0.00 0.20 0.00 71 1054.2
20260830135113 73 292 4.3 0.0 0.00 0.20 0.00 71 1054.3
20260830135002 73 292 6.1 0.0 0.00 0.20 0.00 72 1054.1
20260830134857 73 247 1.7 0.0 0.00 0.20 0.00 72 1054.0
20260830134743 73 315 7.0 0.0 0.00 0.20 0.00 72 1054.1
20260830134637 73 315 3.5 0.0 0.00 0.20 0.00 72 1054.0
20260830134533 73 270 3.5 0.0 0.00 0.20 0.00 71 1054.1
20260830134419 73 292 3.5 0.0 0.00 0.20 0.00 71 1054.0
20260830134306 73 315 5.2 0.0 0.00 0.20 0.00 71 1054.1
20260830134200 72 270 4.3 0.0 0.00 0.20 0.00 71 1054.0
20260830134047 72 270 4.3 0.0 0.00 0.20 0.00 71 1054.1
20260830133936 73 270 6.1 0.0 0.00 0.20 0.00 71 1054.0
20260830133829 73 247 2.6 0.0 0.00 0.20 0.00 70 1054.0
20260830133702 73 292 3.5 0.0 0.00 0.20 0.00 70 1053.9
20260830133554 73 270 5.2 0.0 0.00 0.20 0.00 70 1054.0
20260830133434 73 315 6.1 0.0 0.00 0.20 0.00 70 1054.0
20260830133320 73 315 5.2 0.0 0.00 0.20 0.00 70 1054.0
20260830133151 73 315 7.0 0.0 0.00 0.20 0.00 71 1053.9
20260830133038 73 292 3.5 0.0 0.00 0.20 0.00 71 1053.9
20260830132916 73 337 6.1 0.0 0.00 0.20 0.00 71 1054.0
20260830132755 73 337 3.5 0.0 0.00 0.20 0.00 71 1053.9
20260830132627 72 315 6.1 0.0 0.00 0.20 0.00 72 1054.0
20260830132521 72 315 2.6 0.0 0.00 0.20 0.00 71 1054.0
20260830132408 72 292 4.3 0.0 0.00 0.20 0.00 71 1054.0
20260830132256 72 292 0.0 0.0 0.00 0.20 0.00 71 1054.0
20260830132150 72 315 2.6 0.0 0.00 0.20 0.00 71 1053.9
20260830132028 72 337 0.0 0.0 0.00 0.20 0.00 70 1054.0
20260830131916 72 337 2.6 0.0 0.00 0.20 0.00 70 1053.9
20260830131809 72 315 5.2 0.0 0.00 0.20 0.00 70 1053.9
20260830131658 72 270 4.3 0.0 0.00 0.20 0.00 70 1053.9
20260830131551 72 270 3.5 0.0 0.00 0.20 0.00 70 1053.9
20260830131439 72 270 3.5 0.0 0.00 0.20 0.00 70 1053.9
20260830131327 73 270 0.0 0.0 0.00 0.20 0.00 69 1053.8
20260830131223 73 292 6.1 0.0 0.00 0.20 0.00 70 1053.8
20260830131119 73 337 2.6 0.0 0.00 0.20 0.00 69 1053.8
20260830131011 73 315 1.7 0.0 0.00 0.20 0.00 69 1053.8
20260830130859 73 270 2.6 0.0 0.00 0.20 0.00 70 1053.8
20260830130752 73 315 5.2 0.0 0.00 0.20 0.00 70 1053.8
20260830130640 73 292 4.3 0.0 0.00 0.20 0.00 70 1053.9
20260830130520 73 315 3.5 0.0 0.00 0.20 0.00 70 1053.9
20260830130416 73 315 2.6 0.0 0.00 0.20 0.00 69 1053.8
20260830130308 74 315 4.3 0.0 0.00 0.20 0.00 69 1053.8
20260830130156 74 337 0.0 0.0 0.00 0.20 0.00 68 1053.8
20260830130050 74 315 1.7 0.0 0.00 0.20 0.00 67 1053.8
20260830125921 74 292 1.7 0.0 0.00 0.20 0.00 67 1053.9
20260830125808 74 315 1.7 0.0 0.00 0.20 0.00 67 1053.8
20260830125655 74 315 7.8 0.0 0.00 0.20 0.00 67 1053.8
20260830125542 75 292 1.7 0.0 0.00 0.20 0.00 67 1053.8
20260830125428 75 315 5.2 0.0 0.00 0.20 0.00 67 1053.8
20260830125315 75 292 0.0 0.0 0.00 0.20 0.00 66 1053.8
20260830125205 75 315 0.0 0.0 0.00 0.20 0.00 66 1053.8
20260830125059 75 270 4.3 0.0 0.00 0.20 0.00 66 1053.8
20260830124945 76 337 5.2 0.0 0.00 0.20 0.00 66 1053.8
20260830124839 76 292 4.3 0.0 0.00 0.20 0.00 65 1053.8
20260830124727 76 292 7.8 0.0 0.00 0.20 0.00 64 1053.9
20260830124621 76 270 7.0 0.0 0.00 0.20 0.00 64 1053.8
20260830124508 76 315 5.2 0.0 0.00 0.20 0.00 64 1053.8
20260830124349 77 337 5.2 0.0 0.00 0.20 0.00 63 1053.7
20260830124242 77 292 3.5 0.0 0.00 0.20 0.00 63 1053.8
20260830124139 77 247 3.5 0.0 0.00 0.20 0.00 64 1053.8
20260830124032 77 270 0.0 0.0 0.00 0.20 0.00 63 1053.7
20260830123920 77 292 4.3 0.0 0.00 0.20 0.00 62 1053.7
20260830123814 77 0 1.7 0.0 0.00 0.20 0.00 62 1053.8
20260830123701 78 315 4.3 0.0 0.00 0.20 0.00 62 1053.8
20260830123547 78 292 6.1 0.0 0.00 0.20 0.00 62 1053.8
20260830123435 78 292 5.2 0.0 0.00 0.20 0.00 63 1053.7
20260830123331 78 315 1.7 0.0 0.00 0.20 0.00 62 1053.6
20260830123218 78 315 4.3 0.0 0.00 0.20 0.00 61 1053.7
20260830123111 79 315 7.8 0.0 0.00 0.20 0.00 62 1053.7
20260830122958 79 270 1.7 0.0 0.00 0.20 0.00 61 1053.7
20260830122853 79 270 4.3 0.0 0.00 0.20 0.00 61 1053.7
20260830122739 79 180 4.3 0.0 0.00 0.20 0.00 61 1053.7
20260830122627 80 270 7.0 0.0 0.00 0.20 0.00 60 1053.7
20260830122459 80 270 5.2 0.0 0.00 0.20 0.00 60 1053.7
20260830122353 80 315 3.5 0.0 0.00 0.20 0.00 60 1053.7
20260830122241 80 315 7.0 0.0 0.00 0.20 0.00 61 1053.7
20260830122136 80 337 1.7 0.0 0.00 0.20 0.00 62 1053.6
20260830122030 80 337 0.9 0.0 0.00 0.20 0.00 62 1053.6
20260830121925 79 225 4.3 0.0 0.00 0.20 0.00 62 1053.6
20260830121804 79 292 4.3 0.0 0.00 0.20 0.00 62 1053.6
20260830121650 79 247 2.6 0.0 0.00 0.20 0.00 62 1053.6
20260830121530 79 337 3.5 0.0 0.00 0.20 0.00 62 1053.7
20260830121425 79 270 5.2 0.0 0.00 0.20 0.00 63 1053.6
20260830121312 79 315 1.7 0.0 0.00 0.20 0.00 62 1053.7
20260830121206 79 292 6.1 0.0 0.00 0.20 0.00 64 1053.7
20260830121101 79 247 2.6 0.0 0.00 0.20 0.00 64 1053.6
20260830120950 78 292 6.1 0.0 0.00 0.20 0.00 64 1053.6
20260830120844 78 270 0.0 0.0 0.00 0.20 0.00 64 1053.6
20260830120731 78 292 3.5 0.0 0.00 0.20 0.00 64 1053.5
20260830120627 78 337 4.3 0.0 0.00 0.20 0.00 64 1053.6
20260830120520 78 337 3.5 0.0 0.00 0.20 0.00 64 1053.5
20260830120358 78 337 1.7 0.0 0.00 0.20 0.00 64 1053.6
20260830120229 78 337 5.2 0.0 0.00 0.20 0.00 64 1053.6
20260830120108 77 0 2.6 0.0 0.00 0.20 0.00 64 1053.6
20260830115947 77 270 5.2 0.0 0.00 0.26 0.00 65 1053.6
20260830115834 77 292 2.6 0.0 0.00 0.26 0.00 65 1053.5
20260830115720 77 292 5.2 0.0 0.00 0.26 0.00 65 1053.5
20260830115608 77 337 3.5 0.0 0.00 0.26 0.00 64 1053.5
20260830115456 77 315 1.7 0.0 0.00 0.26 0.00 64 1053.5
20260830115350 77 315 5.2 0.0 0.00 0.26 0.00 64 1053.4
20260830115237 77 337 3.5 0.0 0.00 0.26 0.00 65 1053.5
20260830115132 77 315 5.2 0.0 0.00 0.26 0.00 65 1053.4
20260830115026 77 337 4.3 0.0 0.00 0.26 0.00 65 1053.4
20260830114913 77 337 5.2 0.0 0.00 0.26 0.00 65 1053.4
20260830114800 77 292 4.3 0.0 0.00 0.26 0.00 67 1053.4
20260830114647 77 315 1.7 0.0 0.00 0.26 0.00 66 1053.4
20260830114534 76 337 5.2 0.0 0.00 0.26 0.00 66 1053.3
20260830114414 76 315 4.3 0.0 0.00 0.26 0.00 67 1053.3
20260830114308 77 0 1.7 0.0 0.00 0.26 0.00 66 1053.3
20260830114155 77 270 2.6 0.0 0.00 0.26 0.00 65 1053.4
20260830114044 77 337 5.2 0.0 0.00 0.26 0.00 66 1053.4
20260830113936 77 292 7.0 0.0 0.00 0.26 0.00 66 1053.4
20260830113808 77 0 5.2 0.0 0.00 0.26 0.00 67 1053.4
20260830113704 77 315 4.3 0.0 0.00 0.26 0.00 67 1053.3
20260830113557 76 292 6.1 0.0 0.00 0.26 0.00 66 1053.3
20260830113445 76 292 4.3 0.0 0.00 0.26 0.00 67 1053.3
20260830113340 76 315 9.6 0.0 0.00 0.26 0.00 68 1053.3
20260830113236 76 292 4.3 0.0 0.00 0.26 0.00 68 1053.2
20260830113130 76 315 1.7 0.0 0.00 0.26 0.00 68 1053.3
20260830113012 76 292 6.1 0.0 0.00 0.26 0.00 68 1053.2
20260830112906 76 337 5.2 0.0 0.00 0.26 0.00 68 1053.2
20260830112801 76 0 4.3 0.0 0.00 0.26 0.00 68 1053.1
20260830112648 76 315 7.0 0.0 0.00 0.26 0.00 68 1053.1
20260830112535 76 315 8.7 0.0 0.00 0.26 0.00 70 1053.1
20260830112421 76 315 3.5 0.0 0.00 0.26 0.00 70 1053.1
20260830112300 75 337 6.1 0.0 0.00 0.26 0.00 70 1053.1
20260830112139 75 0 3.5 0.0 0.00 0.26 0.00 70 1053.0
20260830112026 75 0 1.7 0.0 0.00 0.26 0.00 70 1053.0
20260830111914 76 292 0.0 0.0 0.00 0.26 0.00 69 1053.0
20260830111810 76 337 2.6 0.0 0.00 0.26 0.00 69 1053.0
20260830111705 76 292 3.5 0.0 0.00 0.26 0.00 70 1052.9
20260830111558 76 292 1.7 0.0 0.00 0.26 0.00 71 1052.9
20260830111444 75 292 0.0 0.0 0.00 0.26 0.00 75 1052.8
20260830111114 74 337 0.0 0.0 0.00 0.26 0.00 75 1052.8
20260830111001 73 270 0.9 0.0 0.00 0.26 0.00 75 1052.8
20260830110840 73 315 1.7 0.0 0.00 0.26 0.00 75 1052.8
20260830110727 73 315 5.2 0.0 0.00 0.26 0.00 75 1052.8
20260830110614 72 315 6.1 0.0 0.00 0.26 0.00 76 1052.7
20260830110509 72 292 3.5 0.0 0.00 0.26 0.00 76 1052.7
20260830110356 72 315 4.3 0.0 0.00 0.26 0.00 78 1052.7
20260830110250 72 270 0.0 0.0 0.00 0.26 0.00 78 1052.8
20260830110140 72 292 3.5 0.0 0.00 0.26 0.00 77 1052.6
20260830110032 71 292 0.0 0.0 0.00 0.26 0.00 77 1052.7
20260830105911 71 315 0.9 0.0 0.00 0.26 0.00 76 1052.6
20260830105757 71 270 7.0 0.0 0.00 0.26 0.00 76 1052.5
20260830105645 72 315 3.5 0.0 0.00 0.26 0.00 76 1052.5
20260830105540 72 337 0.9 0.0 0.00 0.26 0.00 76 1052.6
20260830105435 72 315 3.5 0.0 0.00 0.26 0.00 76 1052.5
20260830105323 72 337 2.6 0.0 0.00 0.26 0.00 76 1052.5
20260830105210 72 292 2.6 0.0 0.00 0.26 0.00 75 1052.4
20260830105104 72 292 6.1 0.0 0.00 0.26 0.00 76 1052.5
20260830104951 72 315 4.3 0.0 0.00 0.26 0.00 76 1052.5
20260830104846 72 292 1.7 0.0 0.00 0.26 0.00 76 1052.4
20260830104733 72 315 5.2 0.0 0.00 0.26 0.00 76 1052.4
20260830104628 72 315 4.3 0.0 0.00 0.26 0.00 76 1052.4
20260830104522 72 292 99.1 0.0 0.00 0.26 0.00 79 1052.4
20260830103932 70 292 99.1 0.0 0.00 0.26 0.00 84 1052.3
20260830103319 69 292 99.1 0.0 0.00 0.26 0.00 84 1052.1
20260830102649 68 292 99.1 0.0 0.02 0.26 0.00 84 1052.1
20260830102035 68 292 99.1 0.0 0.02 0.26 0.00 84 1051.8
20260830101405 69 292 99.1 0.0 0.02 0.26 0.00 84 1051.8
20260830100746 69 337 2.6 0.0 0.02 0.26 0.00 84 1051.7
20260830100546 69 315 1.7 0.0 0.02 0.26 0.00 84 1051.8
20260830100431 69 270 3.5 0.0 0.02 0.26 0.00 84 1051.7
20260830100307 69 270 6.1 0.0 0.02 0.26 0.00 85 1051.7
20260830100135 69 315 4.3 0.0 0.02 0.26 0.00 85 1051.6
20260830100006 69 315 6.1 0.0 0.02 0.26 0.00 85 1051.7
20260830095900 69 292 6.1 0.0 0.02 0.26 0.00 85 1051.5
20260830095754 69 292 6.1 0.0 0.02 0.26 0.00 86 1051.5
20260830095640 69 292 1.7 0.0 0.02 0.26 0.00 86 1051.6
20260830095534 69 270 5.2 0.0 0.02 0.26 0.00 86 1051.5
20260830095428 69 315 5.2 0.0 0.02 0.26 0.00 87 1051.5
20260830095315 69 337 4.3 0.0 0.02 0.26 0.00 87 1051.5
20260830095203 69 292 6.1 0.0 0.02 0.26 0.00 87 1051.5
20260830095051 69 270 10.4 0.0 0.02 0.26 0.00 88 1051.4
20260830094943 68 315 3.5 0.0 0.02 0.26 0.00 88 1051.5
20260830094831 68 0 3.5 0.0 0.02 0.26 0.00 88 1051.4
20260830094719 68 292 5.2 0.0 0.02 0.26 0.00 88 1051.4
20260830094612 68 292 6.1 0.0 0.02 0.26 0.00 88 1051.4
20260830094451 68 337 7.0 0.0 0.02 0.26 0.00 87 1051.3
20260830094331 67 292 3.5 0.0 0.02 0.26 0.00 87 1051.4
20260830094225 67 315 5.2 0.0 0.02 0.26 0.00 87 1051.3
20260830094106 67 292 7.0 0.0 0.02 0.26 0.00 87 1051.2
20260830093959 67 315 8.7 0.0 0.02 0.26 0.00 86 1051.3
20260830093846 68 315 3.5 0.0 0.02 0.26 0.00 86 1051.2
20260830093740 68 315 3.5 0.0 0.02 0.26 0.00 86 1051.2
20260830093634 68 315 4.3 0.0 0.02 0.26 0.00 86 1051.2
20260830093527 68 270 4.3 0.0 0.02 0.26 0.00 85 1051.1
20260830093422 68 315 4.3 0.0 0.02 0.26 0.00 85 1051.1
20260830093315 68 270 2.6 0.0 0.00 0.24 0.00 85 1051.1
20260830093146 69 315 4.3 0.0 0.00 0.24 0.00 84 1051.0
20260830093032 69 22 1.7 0.0 0.00 0.24 0.00 84 1051.1
20260830092911 69 292 5.2 0.0 0.00 0.24 0.00 84 1050.9
20260830092751 69 292 8.7 0.0 0.00 0.24 0.00 83 1050.9
20260830092638 70 270 7.0 0.0 0.00 0.24 0.00 83 1050.9
20260830092534 70 315 8.7 0.0 0.00 0.24 0.00 82 1050.8
20260830092427 70 247 13.0 0.0 0.00 0.24 0.00 82 1050.8
20260830092316 70 292 7.8 0.0 0.00 0.24 0.00 82 1050.8
20260830092209 70 270 4.3 0.0 0.00 0.24 0.00 82 1050.8
20260830092056 70 225 6.1 0.0 0.00 0.24 0.00 82 1050.8
20260830091934 70 247 10.4 0.0 0.00 0.24 0.00 81 1050.7
20260830091813 70 247 12.2 0.0 0.00 0.24 0.00 81 1050.7
20260830091653 71 315 8.7 0.0 0.00 0.24 0.00 80 1050.7
20260830091546 71 270 11.3 0.0 0.00 0.24 0.00 80 1050.8
20260830091435 71 247 12.2 0.0 0.00 0.24 0.00 80 1050.7
20260830091328 71 270 6.1 0.0 0.00 0.24 0.00 79 1050.7
20260830091223 71 270 8.7 0.0 0.00 0.24 0.00 79 1050.7
20260830091108 71 270 4.3 0.0 0.00 0.24 0.00 80 1050.7
20260830090955 71 270 8.7 0.0 0.00 0.24 0.00 81 1050.7
20260830090849 71 270 3.5 0.0 0.00 0.24 0.00 81 1050.6
20260830090736 70 247 7.0 0.0 0.00 0.24 0.00 82 1050.5
20260830090617 70 247 8.7 0.0 0.00 0.24 0.00 83 1050.6
20260830090511 69 247 4.3 0.0 0.00 0.24 0.00 82 1050.6
20260830090408 69 270 8.7 0.0 0.00 0.24 0.00 82 1050.4
20260830090251 69 270 11.3 0.0 0.00 0.24 0.00 81 1050.5
20260830090132 69 225 3.5 0.0 0.00 0.24 0.00 81 1050.4
20260830090019 70 270 9.6 0.0 0.00 0.24 0.00 80 1050.4
20260830085911 70 270 4.3 0.0 0.00 0.24 0.00 79 1050.4
20260830085756 71 247 8.7 0.0 0.00 0.24 0.00 78 1050.4
20260830085638 71 270 4.3 0.0 0.00 0.24 0.00 78 1050.4
20260830085533 71 270 5.2 0.0 0.00 0.24 0.00 78 1050.4
20260830085421 72 247 3.5 0.0 0.00 0.24 0.00 78 1050.3
20260830085314 72 270 5.2 0.0 0.00 0.24 0.00 78 1050.3
20260830085200 71 247 5.2 0.0 0.00 0.24 0.00 79 1050.4
20260830084828 69 157 99.1 0.0 0.00 0.24 0.00 83 1050.2
20260830084158 68 157 99.1 0.0 0.00 0.24 0.00 85 1050.0
20260830083600 68 157 99.1 0.0 0.00 0.24 0.00 89 1050.0
20260830082946 66 157 99.1 0.0 0.00 0.24 0.00 89 1050.0
20260830082315 66 157 99.1 0.0 0.00 0.24 0.00 88 1049.9
20260830081645 68 157 99.1 0.0 0.00 0.24 0.00 85 1049.7
20260830080958 68 157 99.1 0.0 0.00 0.24 0.00 85 1049.6
20260830080327 67 157 99.1 0.0 0.00 0.24 0.00 85 1049.5
20260830075658 67 157 99.1 0.0 0.00 0.24 0.00 86 1049.4
20260830075035 67 157 99.1 0.0 0.00 0.24 0.00 87 1049.3
20260830074356 66 157 99.1 0.0 0.00 0.24 0.00 88 1049.2
20260830073727 66 157 99.1 0.0 0.00 0.24 0.00 89 1049.1
20260830073056 65 157 99.1 0.0 0.00 0.24 0.00 90 1049.0
20260830072443 65 157 99.1 0.0 0.00 0.24 0.00 91 1048.9
20260830071811 64 157 99.1 0.0 0.00 0.24 0.00 91 1048.8
20260830071156 64 157 99.1 0.0 0.00 0.24 0.00 91 1048.8
20260830070541 64 157 99.1 0.0 0.00 0.24 0.00 91 1048.7
20260830065912 65 157 99.1 0.0 0.00 0.24 0.00 91 1048.6
20260830065242 64 157 99.1 0.0 0.00 0.24 0.00 90 1048.6
20260830064604 65 157 99.1 0.0 0.00 0.24 0.00 90 1048.5
20260830063942 65 157 99.1 0.0 0.00 0.24 0.00 90 1048.4
20260830063328 65 157 99.1 0.0 0.00 0.24 0.00 90 1048.3
20260830062658 65 157 99.1 0.0 0.00 0.24 0.00 90 1048.2
20260830062044 64 157 99.1 0.0 0.00 0.24 0.00 91 1048.2
20260830061415 64 157 99.1 0.0 0.00 0.24 0.00 92 1048.1
20260830060816 64 157 99.1 0.0 0.00 0.24 0.00 92 1048.0
20260830060213 64 157 99.1 0.0 0.00 0.24 0.00 91 1048.0
20260830055604 65 157 99.1 0.0 0.00 0.24 0.00 90 1047.8
20260830054941 65 157 99.1 0.0 0.00 0.24 0.00 90 1047.8
20260830054321 65 157 99.1 0.0 0.00 0.24 0.00 91 1047.7
20260830053703 65 157 99.1 0.0 0.00 0.24 0.00 91 1047.7
20260830053031 65 157 99.1 0.0 0.00 0.24 0.00 92 1047.6
20260830052438 65 157 99.1 0.0 0.00 0.24 0.00 92 1047.4
20260830051816 65 157 99.1 0.0 0.00 0.24 0.00 92 1047.4
20260830051210 65 157 99.1 0.0 0.00 0.24 0.00 93 1047.4
20260830050612 65 157 99.1 0.0 0.02 0.24 0.00 93 1047.3
20260830045953 64 157 99.1 0.0 0.06 0.26 0.00 94 1047.2
20260830045306 64 157 99.1 0.0 0.06 0.26 0.00 94 1047.1
20260830044643 64 157 99.1 0.0 0.06 0.26 0.00 94 1047.0
20260830044045 64 157 99.1 0.0 0.06 0.26 0.00 94 1046.8
20260830043448 64 157 99.1 0.0 0.06 0.26 0.00 94 1046.8
20260830042817 64 157 99.1 0.0 0.06 0.26 0.00 94 1046.8
20260830042204 64 157 99.1 0.0 0.06 0.26 0.00 94 1046.7
20260830041607 64 157 99.1 0.0 0.06 0.26 0.00 94 1046.7
20260830041001 64 157 99.1 0.0 0.04 0.24 0.00 94 1046.7
20260830040347 64 157 99.1 0.0 0.02 0.22 0.00 94 1046.8
20260830035727 64 157 99.1 0.0 0.00 0.20 0.00 94 1046.7